Wind_Speed
34 33 32 31 30 28 27 27 26 27 26 24 25 26 26 24 24 24 25 25 25 24 23 21 21 21 19 18 17 16 15 16 16 16 16 16 16 15 14 14 14 13
35 34 33 32 31 30 30 29 28 27 27 27 25 25 26 26 25 25 25 25 25 24 24 22 22 23 21 19 19 19 18 17 17 17 18 18 17 16 16 15 16 16
37 35 34 33 32 32 32 30 29 28 28 28 27 25 25 26 26 26 26 26 26 25 24 24 23 23 23 21 20 21 20 19 19 18 18 19 18 17 17 16 17 18
39 37 37 35 34 34 32 31 30 30 28 28 29 27 25 24 25 27 27 26 26 25 25 25 24 23 23 23 22 22 21 21 21 19 19 20 20 18 18 18 18 19
41 40 38 36 35 33 33 32 31 31 30 28 28 28 27 26 25 27 28 27 27 26 25 26 25 24 24 23 23 23 22 21 22 21 20 21 22 20 19 19 20 20
41 41 39 37 36 34 33 34 34 33 32 30 28 28 29 28 27 26 27 28 27 26 25 26 26 25 25 25 24 24 23 21 22 23 23 22 22 22 20 20 21 22
40 40 40 37 36 34 34 34 35 34 32 31 29 28 29 30 30 28 27 28 28 27 26 26 27 27 26 26 26 25 25 23 22 24 26 24 23 23 22 22 23 24
39 40 40 38 36 35 35 34 34 34 33 30 29 29 29 30 31 31 29 28 28 28 28 28 28 29 28 27 28 27 27 25 24 25 27 27 25 25 25 24 23 25
39 39 39 38 36 35 35 34 33 34 34 32 30 29 30 30 31 32 31 30 29 29 30 29 29 30 30 29 29 29 29 28 26 26 28 29 28 28 27 26 25 25
38 37 37 37 36 34 34 34 32 31 33 34 31 28 29 31 30 31 31 32 31 30 31 31 31 31 32 31 30 31 31 30 28 28 29 30 30 29 29 28 27 27
36 35 34 35 35 33 33 34 32 30 31 32 32 30 29 30 31 31 31 32 33 32 32 32 32 32 33 32 31 32 32 32 31 30 29 30 31 31 30 30 29 29
35 36 35 35 35 34 33 34 33 31 30 30 32 32 30 30 31 32 32 33 34 34 33 33 34 33 34 34 32 32 32 32 31 31 30 30 31 31 31 31 31 30
37 38 37 36 37 36 34 33 33 32 31 30 31 32 31 30 31 33 34 34 34 35 35 34 35 34 34 35 34 32 32 32 31 31 30 30 30 31 31 31 31 31
38 39 39 38 38 38 36 34 33 33 33 32 32 32 32 31 31 32 34 34 34 36 36 35 35 35 35 35 35 33 32 32 31 30 30 30 30 30 31 31 32 32
37 37 39 39 38 38 38 36 35 35 35 34 33 33 32 32 32 31 32 33 34 35 35 35 35 36 37 36 37 36 33 32 32 32 31 30 30 30 31 32 32 32
36 36 37 38 38 38 39 39 37 36 35 35 35 34 33 33 33 32 31 33 34 34 35 36 36 37 39 39 39 39 37 34 33 33 33 32 31 31 32 32 33 32
35 35 35 37 38 38 38 39 38 37 36 37 36 35 35 34 33 33 32 32 33 34 35 36 37 38 40 42 43 43 41 38 35 34 34 34 33 32 33 33 33 33
35 35 35 35 37 38 38 39 39 38 36 36 37 36 35 34 34 35 35 33 33 34 34 35 37 39 41 44 45 46 44 41 37 35 34 35 35 34 34 33 33 33
34 34 35 35 36 37 37 37 38 38 37 36 37 37 36 35 35 35 36 35 34 34 35 35 35 37 41 44 46 47 47 44 39 36 35 35 36 36 35 35 35 35
35 34 35 34 34 35 34 35 36 38 37 36 35 35 36 36 36 36 36 38 37 35 35 36 35 35 39 43 46 47 48 47 43 38 37 37 37 38 37 37 38 37
35 34 33 33 32 33 33 34 35 36 36 34 32 34 37 37 36 36 36 38 38 37 35 35 35 35 37 41 45 47 48 50 47 42 39 38 37 38 39 39 40 39
33 33 32 32 32 32 32 32 33 33 34 34 32 31 33 34 34 35 35 36 37 37 36 35 34 35 37 40 43 46 48 50 50 46 41 39 38 38 39 40 40 40
32 32 32 32 31 31 33 33 32 32 32 33 32 29 29 30 32 33 33 33 34 36 38 38 35 35 38 40 42 45 48 50 51 48 42 40 39 38 39 40 40 41
32 32 31 32 32 32 32 31 31 31 30 31 33 31 29 29 29 30 31 32 33 35 37 38 37 36 37 39 40 43 47 50 51 48 43 41 39 37 38 39 40 42
31 32 32 32 32 31 30 30 30 29 29 30 31 31 30 28 27 28 30 31 32 34 35 37 37 35 36 38 39 40 44 48 48 45 42 41 39 38 37 37 38 39
30 31 31 31 30 30 29 29 29 27 27 28 28 29 29 29 28 27 28 29 30 30 32 35 35 34 34 37 37 37 41 45 45 43 42 41 38 35 35 35 35 35
Wind_Direction
196 197 198 200 201 203 202 201 201 202 204 204 203 205 206 205 204 204 205 208 209 209 209 211 210 209 209 208 205 204 200 196 195 197 196 194 191 193 199 205 215 221
196 197 197 199 201 203 204 204 203 203 205 206 205 206 208 207 206 205 206 206 208 209 208 209 210 209 207 207 206 204 201 197 196 197 197 196 195 194 199 205 210 222
196 196 197 198 200 202 204 205 205 206 207 208 208 207 207 207 207 206 206 205 205 207 207 207 209 210 207 206 205 204 202 199 197 199 199 198 198 198 200 206 209 214
195 196 197 198 201 203 203 204 206 207 208 209 210 209 207 206 206 206 206 205 205 204 205 206 206 208 208 206 205 203 203 204 200 201 203 200 199 201 203 207 210 211
196 197 199 199 201 203 203 204 206 207 208 209 210 209 209 207 204 205 205 205 205 202 203 204 204 206 207 206 206 204 204 205 203 202 204 203 201 202 205 209 212 213
197 198 200 200 201 201 202 205 206 207 208 209 209 208 208 208 205 203 204 205 205 203 203 204 204 205 206 206 206 207 206 205 205 205 204 205 204 203 206 211 214 216
196 198 199 200 201 201 202 205 207 208 208 208 209 208 208 208 207 205 203 203 204 204 204 204 203 203 205 206 206 208 209 208 207 207 206 206 205 204 206 210 215 217
195 197 199 200 200 201 203 205 207 207 208 207 207 209 208 208 208 207 205 203 203 204 204 204 204 204 204 205 206 207 209 210 210 208 208 207 206 206 206 207 212 216
196 197 198 199 198 200 202 204 206 207 208 207 206 208 208 208 208 208 206 204 204 204 205 205 206 206 205 205 207 208 208 209 211 210 209 208 208 208 207 206 209 214
196 195 195 196 196 198 200 202 204 205 206 207 207 208 208 208 209 208 206 206 205 204 206 206 206 207 206 206 207 209 210 209 210 211 211 211 210 210 209 208 208 212
196 195 194 195 196 198 200 202 204 204 204 206 206 207 208 207 207 207 206 206 205 205 206 206 207 207 207 207 208 210 211 211 211 212 213 213 213 213 212 210 210 211
195 196 196 196 198 200 201 203 203 204 204 203 204 207 208 207 206 206 206 206 206 207 207 207 208 208 208 208 209 211 212 213 213 214 215 215 216 216 215 214 212 212
196 198 198 198 200 202 203 203 203 204 205 204 204 206 207 206 205 205 206 207 207 207 208 208 208 209 209 209 210 211 212 212 213 214 215 217 217 218 217 217 216 215
197 199 199 201 202 202 203 204 204 205 206 206 205 205 207 208 206 204 204 206 207 208 209 210 209 208 209 210 210 211 212 212 213 214 215 216 217 218 218 218 218 218
198 199 200 202 202 202 203 204 205 206 207 207 206 205 207 210 209 207 203 204 207 208 209 210 210 209 210 209 209 210 212 213 213 214 214 214 215 216 218 218 219 218
198 199 200 201 202 203 203 204 205 206 206 207 207 206 207 209 211 211 207 204 205 207 208 210 211 212 211 210 210 210 212 213 213 214 215 215 215 215 216 218 219 220
197 199 200 201 202 203 204 204 205 206 207 207 208 208 207 207 209 212 211 207 205 206 208 210 213 215 213 212 212 212 212 213 214 214 215 216 217 216 216 218 219 221
197 198 199 201 202 203 204 204 205 206 207 207 207 208 208 207 208 210 212 212 207 206 208 211 214 216 215 214 214 214 214 213 214 215 216 217 218 218 218 218 219 221
195 197 199 201 203 204 204 204 204 206 207 207 207 207 207 207 208 209 211 214 212 209 209 213 216 216 216 216 216 216 215 214 214 216 217 218 219 220 220 220 220 221
194 196 199 202 203 203 204 203 204 206 207 208 207 206 206 207 209 209 211 214 216 215 213 215 217 218 218 218 218 218 217 216 216 217 219 220 221 220 221 222 223 222
193 195 198 201 202 203 204 204 205 206 207 207 208 207 208 209 209 210 211 213 216 218 218 218 219 220 220 220 220 220 219 218 218 218 220 222 222 222 223 224 225 225
192 194 196 200 202 202 204 205 206 206 206 206 208 209 210 211 212 213 214 215 216 218 221 223 222 221 222 222 222 221 220 219 219 219 221 222 223 223 224 225 226 226
191 193 195 198 200 201 204 206 206 206 206 206 208 210 211 212 214 215 216 217 218 219 221 225 225 224 225 225 224 221 219 219 219 219 222 224 225 224 225 226 227 227
191 193 194 197 200 202 203 203 204 205 206 207 208 211 213 214 214 216 217 218 219 220 222 225 227 227 228 228 227 223 219 218 219 219 222 226 228 228 228 228 228 228
191 193 195 198 200 202 201 201 201 203 205 207 209 211 215 216 215 216 218 220 221 223 224 226 227 229 231 232 231 227 222 219 218 218 222 227 229 229 230 231 231 231
193 195 197 200 201 202 202 201 201 202 203 205 208 211 215 218 219 219 220 222 223 225 227 228 228 230 232 234 234 231 226 221 217 218 222 226 228 230 232 234 235 235
Height
777 780 783 785 788 790 791 793 795 797 799 800 802 804 805 807 809 811 812 814 816 817 819 821 822 824 825 827 828 829 830 831 832 834 834 835 836 837 839 840 841 842
773 776 779 782 784 786 788 790 792 794 796 797 799 801 803 805 807 808 810 811 813 815 817 819 820 821 823 825 826 827 829 830 831 832 833 834 835 836 837 839 840 841
769 772 775 777 780 782 784 787 789 790 792 794 796 798 800 802 804 806 807 809 810 812 815 816 818 819 821 823 824 825 827 828 829 830 831 832 833 834 835 837 838 839
764 767 770 772 775 778 781 783 785 787 789 791 793 795 797 799 801 802 805 806 808 810 812 814 816 817 819 821 822 823 824 826 827 828 829 830 831 833 834 835 836 837
759 762 765 768 771 774 777 780 781 783 785 787 789 792 794 796 797 799 801 804 805 807 809 811 813 815 817 818 820 821 822 823 825 826 828 828 829 830 832 833 834 835
755 758 761 764 767 770 773 775 777 779 781 784 786 789 791 793 795 796 798 800 803 805 807 809 811 812 814 816 818 819 820 821 822 823 825 826 827 828 829 831 832 833
751 754 757 760 763 767 769 771 773 775 778 781 783 785 787 790 792 793 795 797 800 802 804 806 807 809 811 812 814 816 817 819 820 820 822 823 824 825 826 828 829 830
746 749 753 756 759 762 765 767 769 772 774 777 779 782 784 786 788 790 792 794 796 799 801 803 804 806 808 809 811 812 814 816 817 817 819 820 821 822 823 824 826 827
742 745 748 752 755 758 760 763 765 768 770 773 775 778 780 782 784 786 789 791 793 795 797 799 801 802 804 805 807 808 810 812 813 814 815 816 817 818 819 821 823 824
738 741 744 747 750 753 756 759 761 764 767 769 772 775 777 779 781 783 786 787 789 792 793 795 797 798 800 802 803 804 806 807 809 810 811 813 814 815 816 817 819 820
735 738 741 743 746 749 752 755 758 760 763 766 768 771 773 775 778 780 782 784 785 787 789 791 792 794 796 798 799 801 802 803 805 807 808 809 811 812 813 814 815 817
731 733 736 740 742 745 748 751 754 757 759 762 764 767 769 771 773 775 777 779 781 783 785 786 788 790 792 794 796 797 799 800 802 803 805 806 808 809 810 811 812 814
724 728 731 734 737 740 744 747 750 753 755 757 760 762 765 767 769 770 772 774 776 778 780 782 783 786 788 790 792 794 795 797 798 800 802 803 804 806 807 809 810 811
718 722 726 729 732 735 739 743 745 748 750 753 756 758 761 763 764 766 767 770 772 773 776 778 779 781 783 785 788 790 792 793 795 797 798 799 801 802 804 805 806 807
715 718 721 725 728 731 734 737 740 743 746 748 751 753 756 758 760 762 763 765 767 769 772 774 776 776 778 780 783 785 788 789 790 792 793 795 796 798 799 801 802 803
712 714 717 720 724 726 729 732 735 738 741 744 746 748 751 753 756 758 760 761 763 765 768 769 770 771 772 774 777 779 782 784 785 787 788 790 791 793 794 796 797 798
707 710 713 716 719 722 724 727 731 734 736 738 741 744 746 749 752 754 756 757 759 760 762 763 764 765 766 768 770 773 776 778 780 782 784 786 787 788 789 791 792 794
703 706 709 712 714 717 720 723 726 729 731 734 736 739 742 744 747 749 751 753 754 755 757 757 758 759 761 763 765 767 770 773 776 778 779 781 782 783 784 786 787 788
699 703 705 708 711 713 716 719 722 725 727 729 732 735 738 740 742 744 746 749 749 750 751 752 753 755 756 758 760 762 765 768 771 773 774 775 777 778 780 781 781 782
695 698 702 705 708 711 714 716 718 720 723 726 729 731 734 735 737 739 741 743 745 745 747 748 749 751 752 754 755 757 760 763 765 767 768 769 770 772 774 775 775 777
691 694 698 702 705 708 711 712 714 716 720 723 726 727 729 730 732 735 736 738 740 742 743 743 744 746 748 749 751 753 756 758 760 761 763 763 765 767 768 769 770 771
687 691 694 698 701 705 707 710 712 714 717 720 722 724 725 727 729 731 732 734 735 738 739 739 740 741 743 744 745 748 751 753 755 756 757 758 759 761 762 763 765 766
684 688 691 694 698 700 703 706 708 711 714 717 719 721 722 724 725 726 728 730 731 733 734 734 735 737 738 738 740 742 745 748 750 751 753 753 754 755 757 757 758 760
681 684 688 691 694 696 699 702 705 708 711 713 716 717 718 720 721 723 725 726 727 728 729 729 731 732 733 734 735 737 740 742 744 747 749 749 750 751 752 752 752 754
678 681 685 687 690 693 696 699 702 705 708 711 713 714 715 717 718 720 721 721 723 724 725 726 727 729 730 731 732 734 736 738 741 744 744 744 745 746 747 748 748 749
675 679 682 684 688 691 694 696 699 702 705 707 709 711 712 714 715 716 717 718 719 721 722 723 724 726 727 728 729 731 733 735 738 739 738 738 741 743 744 745 746 746